This is the latest recevied weather packets stored in our database for station/object KD0SBN. If no packets are shown the sender has not sent any weather packets the latest 10 day(s).
| Time | Temp. | Humidity | Pressure | Rain* | Wind** | Luminosity | Snow |
|---|---|---|---|---|---|---|---|
| 1777574861 | 8.33° C | 83% | 1019.4 hPa | 0 mm | - | - | - |
| 1777574559 | 7.78° C | 83% | 1019.7 hPa | 0 mm | - | - | - |
| 1777574255 | 7.78° C | 84% | 1019.7 hPa | 0 mm | - | - | - |
| 1777573950 | 7.22° C | 86% | 1019.7 hPa | 0 mm | - | - | - |
| 1777573645 | 7.22° C | 86% | 1019.7 hPa | 0 mm | - | - | - |
| 1777573342 | 7.22° C | 85% | 1019.9 hPa | 0 mm | - | - | - |
| 1777573037 | 7.78° C | 85% | 1020.1 hPa | 0 mm | - | - | - |
| 1777572734 | 7.78° C | 85% | 1020.3 hPa | 0 mm | - | - | - |
| 1777572429 | 7.78° C | 83% | 1020 hPa | 0 mm | - | - | - |
| 1777572126 | 7.78° C | 81% | 1020 hPa | 0 mm | - | - | - |
| 1777571821 | 8.33° C | 79% | 1020.1 hPa | 0 mm | - | - | - |
| 1777571517 | 8.33° C | 82% | 1020.1 hPa | 0 mm | - | - | - |
| 1777571214 | 7.78° C | 82% | 1019.9 hPa | 0 mm | - | - | - |
| 1777570909 | 7.78° C | 83% | 1020.1 hPa | 0 mm | - | - | - |
| 1777570606 | 7.78° C | 83% | 1020 hPa | 0 mm | - | - | - |
| 1777570303 | 7.78° C | 84% | 1020.3 hPa | 0 mm | - | - | - |
| 1777569998 | 7.22° C | 85% | 1020 hPa | 0 mm | - | - | - |
| 1777569694 | 7.22° C | 84% | 1020 hPa | 0 mm | - | - | - |
| 1777569390 | 7.22° C | 84% | 1020.4 hPa | 0 mm | - | - | - |
| 1777569087 | 7.22° C | 85% | 1020.3 hPa | 0 mm | - | - | - |
| 1777568783 | 7.22° C | 86% | 1020.3 hPa | 0 mm | - | - | - |
| 1777568482 | 7.22° C | 86% | 1020.1 hPa | 0 mm | - | - | - |
| 1777568177 | 6.67° C | 85% | 1020.4 hPa | 0 mm | - | - | - |
| 1777567875 | 7.22° C | 86% | 1020.4 hPa | 0 mm | - | - | - |
| 1777567570 | 7.22° C | 87% | 1020.5 hPa | 0 mm | - | - | - |
* Rain latest hour (hover to see other rain measurements)
** Current wind speed in m/s (hover to see current wind gust speed)